| time (UTC) | temp F | wind direction | speed knots | gust knots | rain 1hr in | rain 24hr in | rain mn in | humidity % | barometer mb |
| 20260507050110 | 54 | 253 | 0.9 | 5.2 | 0.00 | 0.00 | 0.00 | 82 | 1010.0 |
| 20260507044602 | 54 | 285 | 0.9 | 7.0 | 0.00 | 0.00 | 0.00 | 83 | 1009.7 |
| 20260507043016 | 54 | 225 | 0.9 | 3.5 | 0.00 | 0.00 | 0.00 | 83 | 1009.3 |
| 20260507041521 | 54 | 228 | 0.0 | 2.6 | 0.00 | 0.00 | 0.00 | 85 | 1009.4 |
| 20260507040045 | 53 | 206 | 0.0 | 1.7 | 0.00 | 0.00 | 0.00 | 86 | 1009.2 |
| 20260507034605 | 53 | 174 | 0.0 | 0.9 | 0.00 | 0.00 | 0.00 | 87 | 1009.0 |
| 20260507033024 | 53 | 136 | 0.0 | 0.9 | 0.00 | 0.00 | 0.00 | 87 | 1009.0 |
| 20260507031516 | 54 | 257 | 0.0 | 1.7 | 0.00 | 0.00 | 0.00 | 86 | 1008.8 |
| 20260507030045 | 53 | 248 | 0.0 | 1.7 | 0.00 | 0.00 | 0.00 | 87 | 1008.5 |
| 20260507024550 | 54 | 264 | 0.0 | 0.9 | 0.00 | 0.00 | 0.00 | 87 | 1008.4 |
| 20260507023008 | 54 | 250 | 0.0 | 0.9 | 0.00 | 0.00 | 0.00 | 86 | 1008.4 |
| 20260507021545 | 54 | 245 | 0.0 | 3.5 | 0.00 | 0.00 | 0.00 | 86 | 1008.2 |
| 20260507020048 | 54 | 242 | 0.0 | 3.5 | 0.00 | 0.00 | 0.00 | 87 | 1008.3 |
| 20260507014559 | 54 | 280 | 0.9 | 3.5 | 0.00 | 0.00 | 0.00 | 87 | 1008.1 |
| 20260507013000 | 54 | 282 | 0.9 | 4.3 | 0.00 | 0.00 | 0.00 | 87 | 1007.8 |
| 20260507011535 | 54 | 262 | 0.9 | 2.6 | 0.00 | 0.00 | 0.00 | 86 | 1007.9 |
| 20260507010047 | 54 | 262 | 0.0 | 2.6 | 0.00 | 0.00 | 0.00 | 85 | 1007.5 |
| 20260507004600 | 55 | 273 | 0.9 | 4.3 | 0.00 | 0.00 | 0.00 | 85 | 1007.6 |
| 20260507003001 | 55 | 238 | 0.0 | 2.6 | 0.00 | 0.00 | 0.00 | 83 | 1007.6 |
| 20260507001517 | 55 | 286 | 0.0 | 3.5 | 0.00 | 0.00 | 0.00 | 83 | 1007.1 |
| 20260507000033 | 55 | 259 | 0.0 | 3.5 | 0.00 | 0.00 | 0.00 | 83 | 1007.4 |
| 20260506234619 | 55 | 281 | 0.9 | 3.5 | 0.00 | 0.00 | 0.00 | 82 | 1007.4 |
| 20260506233048 | 56 | 269 | 0.0 | 3.5 | 0.00 | 0.00 | 0.00 | 82 | 1007.0 |
| 20260506231524 | 56 | 229 | 0.9 | 4.3 | 0.00 | 0.00 | 0.00 | 80 | 1007.0 |
| 20260506230018 | 56 | 240 | 0.0 | 4.3 | 0.00 | 0.00 | 0.00 | 80 | 1006.8 |
| 20260506224535 | 57 | 267 | 0.0 | 2.6 | 0.00 | 0.00 | 0.00 | 80 | 1006.3 |
| 20260506223056 | 57 | 333 | 0.9 | 5.2 | 0.00 | 0.00 | 0.00 | 79 | 1005.8 |
| 20260506221506 | 58 | 290 | 0.9 | 4.3 | 0.00 | 0.00 | 0.00 | 79 | 1005.4 |
| 20260506220035 | 58 | 255 | 0.9 | 7.0 | 0.00 | 0.00 | 0.00 | 78 | 1005.6 |
| 20260506214531 | 59 | 291 | 0.9 | 5.2 | 0.00 | 0.00 | 0.00 | 78 | 1005.3 |
| 20260506213101 | 59 | 288 | 1.7 | 10.4 | 0.00 | 0.00 | 0.00 | 77 | 1005.0 |
| 20260506211516 | 61 | 271 | 2.6 | 8.7 | 0.00 | 0.00 | 0.00 | 74 | 1004.8 |
| 20260506210137 | 61 | 263 | 0.9 | 7.0 | 0.00 | 0.00 | 0.00 | 69 | 1004.2 |
| 20260506204550 | 60 | 126 | 0.0 | 4.3 | 0.00 | 0.00 | 0.00 | 72 | 1004.1 |
| 20260506203051 | 61 | 120 | 0.0 | 0.0 | 0.00 | 0.00 | 0.00 | 72 | 1003.7 |
| 20260506201508 | 62 | 122 | 0.0 | 0.9 | 0.00 | 0.00 | 0.00 | 70 | 1003.7 |
| 20260506200027 | 62 | 146 | 0.0 | 0.9 | 0.00 | 0.00 | 0.00 | 69 | 1003.8 |
| 20260506194553 | 63 | 226 | 0.9 | 4.3 | 0.00 | 0.00 | 0.00 | 69 | 1003.7 |
| 20260506193052 | 63 | 129 | 0.0 | 0.9 | 0.00 | 0.00 | 0.00 | 68 | 1003.6 |
| 20260506191603 | 64 | 117 | 0.0 | 1.7 | 0.00 | 0.00 | 0.00 | 66 | 1003.4 |
| 20260506184546 | 66 | 99 | 0.9 | 6.1 | 0.00 | 0.00 | 0.00 | 62 | 1002.9 |
| 20260506183107 | 66 | 68 | 2.6 | 8.7 | 0.00 | 0.00 | 0.00 | 61 | 1002.7 |
| 20260506181558 | 67 | 96 | 2.6 | 6.1 | 0.00 | 0.00 | 0.00 | 60 | 1002.9 |
| 20260506180007 | 68 | 77 | 1.7 | 7.0 | 0.00 | 0.00 | 0.00 | 58 | 1002.8 |
| 20260506174520 | 68 | 101 | 4.3 | 8.7 | 0.00 | 0.00 | 0.00 | 58 | 1002.6 |
| 20260506173040 | 69 | 122 | 2.6 | 8.7 | 0.00 | 0.00 | 0.00 | 56 | 1002.5 |
| 20260506171554 | 70 | 102 | 4.3 | 12.2 | 0.00 | 0.00 | 0.00 | 55 | 1002.7 |
| 20260506170022 | 71 | 77 | 4.3 | 12.2 | 0.00 | 0.00 | 0.00 | 55 | 1002.8 |
| 20260506164530 | 71 | 63 | 7.0 | 13.9 | 0.00 | 0.00 | 0.00 | 54 | 1002.9 |
| 20260506163037 | 72 | 49 | 2.6 | 11.3 | 0.00 | 0.00 | 0.00 | 52 | 1003.1 |
| 20260506161603 | 72 | 89 | 4.3 | 10.4 | 0.00 | 0.00 | 0.00 | 53 | 1003.5 |
| 20260506160100 | 71 | 113 | 6.1 | 15.6 | 0.00 | 0.00 | 0.00 | 51 | 1003.6 |
| 20260506154522 | 72 | 71 | 6.1 | 14.8 | 0.00 | 0.00 | 0.00 | 51 | 1003.7 |
| 20260506153025 | 72 | 107 | 4.3 | 13.9 | 0.00 | 0.00 | 0.00 | 51 | 1003.9 |
| 20260506151603 | 72 | 154 | 4.3 | 11.3 | 0.00 | 0.00 | 0.00 | 51 | 1004.3 |
| 20260506150021 | 70 | 183 | 3.5 | 9.6 | 0.00 | 0.00 | 0.00 | 53 | 1004.6 |
| 20260506144513 | 71 | 171 | 5.2 | 14.8 | 0.00 | 0.00 | 0.00 | 53 | 1004.5 |
| 20260506143044 | 72 | 153 | 3.5 | 10.4 | 0.00 | 0.00 | 0.00 | 52 | 1004.8 |
| 20260506141557 | 72 | 148 | 3.5 | 12.2 | 0.00 | 0.00 | 0.00 | 54 | 1004.7 |
| 20260506140104 | 70 | 171 | 4.3 | 14.8 | 0.00 | 0.00 | 0.00 | 54 | 1005.0 |
| 20260506134529 | 70 | 46 | 5.2 | 11.3 | 0.00 | 0.00 | 0.00 | 55 | 1005.1 |
| 20260506133042 | 71 | 273 | 3.5 | 11.3 | 0.00 | 0.00 | 0.00 | 54 | 1005.1 |
| 20260506131602 | 71 | 75 | 7.8 | 13.0 | 0.00 | 0.00 | 0.00 | 55 | 1005.2 |
| 20260506130001 | 71 | 107 | 2.6 | 12.2 | 0.00 | 0.00 | 0.00 | 56 | 1005.5 |
| 20260506124522 | 72 | 173 | 3.5 | 8.7 | 0.00 | 0.00 | 0.00 | 53 | 1005.6 |
| 20260506123040 | 71 | 86 | 3.5 | 13.9 | 0.00 | 0.00 | 0.00 | 53 | 1006.0 |
| 20260506121508 | 71 | 110 | 3.5 | 11.3 | 0.00 | 0.00 | 0.00 | 51 | 1006.0 |
| 20260506120041 | 70 | 64 | 3.5 | 10.4 | 0.00 | 0.00 | 0.00 | 52 | 1006.1 |
| 20260506114508 | 71 | 207 | 1.7 | 8.7 | 0.00 | 0.00 | 0.00 | 51 | 1006.3 |
| 20260506113024 | 70 | 208 | 3.5 | 13.0 | 0.00 | 0.00 | 0.00 | 52 | 1006.3 |
| 20260506111546 | 71 | 103 | 4.3 | 10.4 | 0.00 | 0.00 | 0.00 | 52 | 1006.2 |
| 20260506110002 | 69 | 115 | 4.3 | 8.7 | 0.00 | 0.00 | 0.00 | 53 | 1006.5 |
| 20260506104520 | 70 | 82 | 3.5 | 7.8 | 0.00 | 0.00 | 0.00 | 55 | 1006.5 |
| 20260506103032 | 69 | 113 | 1.7 | 5.2 | 0.00 | 0.00 | 0.00 | 55 | 1006.7 |
| 20260506101532 | 69 | 194 | 2.6 | 8.7 | 0.00 | 0.00 | 0.00 | 55 | 1007.0 |
| 20260506100038 | 68 | 240 | 2.6 | 7.0 | 0.00 | 0.00 | 0.00 | 57 | 1007.0 |
| 20260506094552 | 68 | 101 | 4.3 | 8.7 | 0.00 | 0.00 | 0.00 | 59 | 1007.1 |
| 20260506093106 | 68 | 96 | 2.6 | 7.8 | 0.00 | 0.00 | 0.00 | 60 | 1007.2 |
| 20260506091522 | 67 | 203 | 3.5 | 7.8 | 0.00 | 0.00 | 0.00 | 61 | 1007.3 |
| 20260506090042 | 67 | 223 | 4.3 | 7.8 | 0.00 | 0.00 | 0.00 | 62 | 1007.1 |
| 20260506084531 | 66 | 188 | 1.7 | 6.1 | 0.00 | 0.00 | 0.00 | 64 | 1007.2 |
| 20260506083044 | 65 | 103 | 0.0 | 5.2 | 0.00 | 0.00 | 0.00 | 65 | 1007.2 |
| 20260506081540 | 65 | 147 | 0.9 | 4.3 | 0.00 | 0.00 | 0.00 | 67 | 1007.4 |
| 20260506073048 | 64 | 233 | 1.7 | 7.0 | 0.00 | 0.00 | 0.00 | 68 | 1007.6 |
| 20260506071612 | 63 | 247 | 2.6 | 4.3 | 0.00 | 0.00 | 0.00 | 70 | 1007.6 |
| 20260506070104 | 63 | 232 | 0.9 | 4.3 | 0.00 | 0.00 | 0.00 | 70 | 1007.7 |
| 20260506061545 | 61 | 283 | 0.0 | 2.6 | 0.00 | 0.00 | 0.00 | 73 | 1007.6 |